Weather History for KLJF - January, 2013

Change the Weather History Date:

Sunday, January 20, 2013

  Actual Average Record
Temperature  
Mean Temperature 0 °F -  
Max Temperature 6 °F 23 °F 44 °F (1964)
Min Temperature -5 °F 0 °F -34 °F (1985)
Degree Days  
Heating Degree Days 64    
Moisture  
Dew Point -7 °F    
Average Humidity 70    
Maximum Humidity 79    
Minimum Humidity 61    
Precipitation  
Precipitation 0.00 in - - ()
Sea Level Pressure  
Sea Level Pressure 30.31 in    
Wind  
Wind Speed 11 mph (WNW)    
Max Wind Speed 17 mph    
Max Gust Speed 25 mph    
Visibility 10 miles    
Events      
Averages and records for this station are not official NWS values.
T = Trace of Precipitation, MM = Missing Value Source: NWS Daily Summary

Daily Weather History Graph

Daily Weather History Graph

Search for Another Location

Airport or City:

Trip Planner

Search our weather history database for the weather conditions in past years. The results will help you decide how hot, cold, wet, or windy it might be!

Date:

Astronomy

Jan. 20, 2013 Rise Set
Actual Time 7:49 AM CST 5:09 PM CST
Civil Twilight 7:17 AM CST 5:41 PM CST
Nautical Twilight 6:41 AM CST 6:17 PM CST
Astronomical Twilight 6:06 AM CST 6:52 PM CST
Moon 12:11 PM CST (1/20) 2:21 AM CST (1/20)
Length of Visible Light 10h 24m
Length of Day
9h 19m
Waxing Gibbous, 66% of the Moon is Illuminated
Jan 20
Waxing Gibbous
Jan 26
Full
Feb 3
Last Quarter
Feb 10
New
Feb 17
First Quarter

Hourly Weather History & Observations

Time (CST) Temp. Windchill Dew Point Humidity Pressure Visibility Wind Dir Wind Speed Gust Speed Precip Events Conditions
12:13 AM -0.4 °F -17.6 °F -7.6 °F 72% 30.26 in 10.0 mi NW 11.5 mph 19.6 mph N/A   Clear
12:33 AM -0.4 °F -18.4 °F -7.6 °F 72% 30.25 in 10.0 mi NW 12.7 mph 18.4 mph N/A   Clear
12:53 AM -0.4 °F -17.6 °F -7.6 °F 72% 30.26 in 10.0 mi WNW 11.5 mph 18.4 mph N/A   Clear
1:13 AM -0.4 °F -17.6 °F -7.6 °F 72% 30.28 in 10.0 mi WNW 11.5 mph - N/A   Clear
1:33 AM -0.4 °F -16.7 °F -7.6 °F 72% 30.28 in 10.0 mi WNW 10.4 mph 16.1 mph N/A   Clear
2:13 AM -0.4 °F -16.7 °F -7.6 °F 72% 30.29 in 10.0 mi WNW 10.4 mph - N/A   Clear
2:33 AM -0.4 °F -17.6 °F -7.6 °F 72% 30.31 in 10.0 mi NW 11.5 mph 17.3 mph N/A   Clear
2:53 AM -0.4 °F -17.6 °F -7.6 °F 72% 30.31 in 10.0 mi NW 11.5 mph - N/A   Clear
3:13 AM -0.4 °F -13.4 °F -7.6 °F 72% 30.32 in 10.0 mi WNW 6.9 mph - N/A   Clear
3:33 AM -0.4 °F -18.4 °F -7.6 °F 72% 30.32 in 10.0 mi WNW 12.7 mph - N/A   Clear
3:53 AM -0.4 °F -15.7 °F -7.6 °F 72% 30.31 in 10.0 mi NW 9.2 mph - N/A   Clear
4:13 AM -0.4 °F -13.4 °F -7.6 °F 72% 30.31 in 10.0 mi WNW 6.9 mph - N/A   Clear
4:33 AM -2.2 °F -15.6 °F -7.6 °F 78% 30.31 in 10.0 mi WNW 6.9 mph - N/A   Clear
4:53 AM -2.2 °F -15.6 °F -7.6 °F 78% 30.31 in 10.0 mi NW 6.9 mph - N/A   Clear
5:13 AM -2.2 °F -15.6 °F -7.6 °F 78% 30.30 in 10.0 mi NW 6.9 mph - N/A   Clear
5:33 AM -2.2 °F -18.0 °F -9.4 °F 71% 30.31 in 10.0 mi NW 9.2 mph - N/A   Clear
5:53 AM -2.2 °F -16.8 °F -7.6 °F 78% 30.31 in 10.0 mi WNW 8.1 mph - N/A   Clear
6:13 AM -2.2 °F -18.0 °F -7.6 °F 78% 30.31 in 10.0 mi WNW 9.2 mph - N/A   Clear
6:33 AM -0.4 °F -13.4 °F -7.6 °F 72% 30.31 in 10.0 mi WNW 6.9 mph - N/A   Clear
6:53 AM -0.4 °F -13.4 °F -7.6 °F 72% 30.31 in 10.0 mi WNW 6.9 mph - N/A   Clear
7:13 AM -0.4 °F -14.7 °F -7.6 °F 72% 30.31 in 10.0 mi WNW 8.1 mph - N/A   Clear
7:33 AM -0.4 °F -13.4 °F -7.6 °F 72% 30.32 in 10.0 mi WNW 6.9 mph - N/A   Clear
7:53 AM -0.4 °F -14.7 °F -7.6 °F 72% 30.33 in 10.0 mi WNW 8.1 mph - N/A   Clear
8:13 AM -0.4 °F -13.4 °F -9.4 °F 66% 30.34 in 10.0 mi WNW 6.9 mph - N/A   Clear
8:33 AM -0.4 °F -15.7 °F -7.6 °F 72% 30.35 in 10.0 mi WNW 9.2 mph - N/A   Clear
8:53 AM -0.4 °F -14.7 °F -7.6 °F 72% 30.35 in 10.0 mi WNW 8.1 mph - N/A   Clear
9:13 AM -0.4 °F -16.7 °F -7.6 °F 72% 30.37 in 10.0 mi WNW 10.4 mph - N/A   Scattered Clouds
9:33 AM 1.4 °F -12.5 °F -7.6 °F 66% 30.38 in 10.0 mi WNW 8.1 mph - N/A   Clear
9:53 AM 1.4 °F -13.5 °F -7.6 °F 66% 30.38 in 10.0 mi WNW 9.2 mph - N/A   Clear
10:13 AM 1.4 °F -15.3 °F -7.6 °F 66% 30.39 in 10.0 mi WNW 11.5 mph 17.3 mph N/A   Clear
10:33 AM 1.4 °F -13.5 °F -7.6 °F 66% 30.38 in 10.0 mi WNW 9.2 mph - N/A   Clear
10:53 AM 1.4 °F -13.5 °F -7.6 °F 66% 30.38 in 10.0 mi NW 9.2 mph - N/A   Scattered Clouds
11:13 AM 3.2 °F -11.3 °F -5.8 °F 66% 30.38 in 10.0 mi West 9.2 mph - N/A   Scattered Clouds
11:33 AM 3.2 °F -12.2 °F -5.8 °F 66% 30.38 in 10.0 mi WNW 10.4 mph - N/A   Clear
11:53 AM 3.2 °F -12.2 °F -5.8 °F 66% 30.37 in 10.0 mi West 10.4 mph - N/A   Scattered Clouds
12:14 PM 3.2 °F -10.3 °F -5.8 °F 66% 30.36 in 10.0 mi WNW 8.1 mph - N/A   Scattered Clouds
12:33 PM 5.0 °F -10.0 °F -5.8 °F 61% 30.35 in 10.0 mi WNW 10.4 mph 17.3 mph N/A   Clear
12:53 PM 5.0 °F -9.1 °F -4.0 °F 66% 30.35 in 10.0 mi West 9.2 mph - N/A   Scattered Clouds
1:13 PM 5.0 °F -8.1 °F -4.0 °F 66% 30.32 in 10.0 mi West 8.1 mph - N/A   Mostly Cloudy
1:33 PM 6.8 °F -8.6 °F -2.2 °F 67% 30.32 in 10.0 mi West 11.5 mph - N/A   Scattered Clouds
1:53 PM 6.8 °F -6.9 °F -2.2 °F 67% 30.31 in 10.0 mi West 9.2 mph 17.3 mph N/A   Scattered Clouds
2:13 PM 6.8 °F -8.6 °F -2.2 °F 67% 30.30 in 10.0 mi West 11.5 mph 18.4 mph N/A   Scattered Clouds
2:33 PM 6.8 °F -8.6 °F -0.4 °F 72% 30.30 in 10.0 mi West 11.5 mph 20.7 mph N/A   Mostly Cloudy
2:53 PM 6.8 °F -9.3 °F -0.4 °F 72% 30.29 in 7.0 mi WNW 12.7 mph 19.6 mph N/A   Overcast
3:13 PM 6.8 °F -9.3 °F -0.4 °F 72% 30.29 in 5.0 mi WNW 12.7 mph 19.6 mph N/A   Haze
3:33 PM 6.8 °F -7.8 °F -0.4 °F 72% 30.29 in 10.0 mi WNW 10.4 mph - N/A   Mostly Cloudy
3:53 PM 6.8 °F -7.8 °F -0.4 °F 72% 30.29 in 10.0 mi WNW 10.4 mph 16.1 mph N/A   Mostly Cloudy
4:13 PM 6.8 °F -11.8 °F -0.4 °F 72% 30.28 in 10.0 mi WNW 17.3 mph 24.2 mph N/A   Mostly Cloudy
4:33 PM 6.8 °F -8.6 °F 1.4 °F 79% 30.28 in 4.0 mi WNW 11.5 mph 16.1 mph N/A   Haze
4:53 PM 6.8 °F -7.8 °F -0.4 °F 72% 30.28 in 10.0 mi NW 10.4 mph 16.1 mph N/A   Scattered Clouds
5:13 PM 5.0 °F -10.8 °F -0.4 °F 78% 30.28 in 5.0 mi WNW 11.5 mph 17.3 mph N/A   Haze
5:33 PM 3.2 °F -16.5 °F -4.0 °F 72% 30.29 in 10.0 mi NW 17.3 mph 24.2 mph N/A   Scattered Clouds
5:53 PM 3.2 °F -15.3 °F -5.8 °F 66% 30.29 in 10.0 mi NW 15.0 mph 20.7 mph N/A   Clear
6:13 PM 1.4 °F -16.1 °F -7.6 °F 66% 30.29 in 10.0 mi NW 12.7 mph 18.4 mph N/A   Clear
6:33 PM 1.4 °F -16.1 °F -5.8 °F 72% 30.29 in 10.0 mi WNW 12.7 mph 19.6 mph N/A   Clear
6:53 PM 1.4 °F -16.1 °F -5.8 °F 72% 30.29 in 10.0 mi WNW 12.7 mph - N/A   Clear
7:13 PM 1.4 °F -18.2 °F -7.6 °F 66% 30.29 in 10.0 mi WNW 16.1 mph 23.0 mph N/A   Clear
7:33 PM 1.4 °F -18.2 °F -7.6 °F 66% 30.28 in 10.0 mi WNW 16.1 mph 25.3 mph N/A   Clear
7:53 PM -0.4 °F -19.2 °F -9.4 °F 66% 30.28 in 10.0 mi NW 13.8 mph 20.7 mph N/A   Clear
8:13 PM -0.4 °F -18.4 °F -9.4 °F 66% 30.28 in 10.0 mi WNW 12.7 mph 19.6 mph N/A   Clear
8:33 PM -2.2 °F -22.2 °F -9.4 °F 71% 30.28 in 10.0 mi NW 15.0 mph 21.9 mph N/A   Clear
8:53 PM -2.2 °F -19.9 °F -11.2 °F 66% 30.28 in 10.0 mi WNW 11.5 mph - N/A   Clear
9:13 PM -2.2 °F -22.2 °F -11.2 °F 66% 30.28 in 10.0 mi NW 15.0 mph 19.6 mph N/A   Clear
9:34 PM -2.2 °F -22.2 °F -11.2 °F 66% 30.28 in 10.0 mi WNW 15.0 mph - N/A   Clear
9:53 PM -2.2 °F -18.9 °F -11.2 °F 66% 30.29 in 10.0 mi NW 10.4 mph 19.6 mph N/A   Clear
10:13 PM -2.2 °F -19.9 °F -11.2 °F 66% 30.29 in 10.0 mi NW 11.5 mph 18.4 mph N/A   Clear
10:34 PM -4.0 °F -22.1 °F -11.2 °F 71% 30.29 in 10.0 mi NW 11.5 mph 17.3 mph N/A   Clear
10:53 PM -4.0 °F -23.0 °F -11.2 °F 71% 30.29 in 10.0 mi WNW 12.7 mph 18.4 mph N/A   Clear
11:13 PM -5.8 °F -26.8 °F -14.8 °F 65% 30.29 in 10.0 mi NW 15.0 mph 23.0 mph N/A   Clear
11:34 PM -5.8 °F -26.0 °F -14.8 °F 65% 30.29 in 10.0 mi NW 13.8 mph 20.7 mph N/A   Clear
11:53 PM -5.8 °F -28.2 °F -14.8 °F 65% 30.28 in 10.0 mi NW 17.3 mph 25.3 mph N/A   Clear